Location: Cul de Sac
(18.0387°N, 63.0654°W)
Time: 18:20:36
(UTC+00:00)

In-Cosmos 22 Rocket - Pass Details

Date: 29 October 2020
Orbit: 790 x 888 km, 81.2° (Epoch: 24 November)

Event Time Altitude Azimuth Distance (km) Brightness Sun altitude
Rises 22:45:58 0° 350° (N) 3,329 7.3 -15.9°
Reaches altitude 10° 22:48:20 10° 349° (NNW) 2,410 6.6 -16.5°
Maximum altitude 22:53:45 72° 266° (W) 876 4.4 -17.7°
Drops below altitude 10° 22:59:20 10° 182° (S) 2,470 6.7 -19.0°
Sets 23:01:47 0° 180° (S) 3,419 7.5 -19.6°
